Location: ?????
(31.8092°N, 35.2590°E)
Time: 20:19:37
(UTC+00:00)

USA 229 DEB - Pass Details

Date: 20 June 2021
Orbit: 955 x 1257 km, 63.4° (Epoch: 20 July)

Event Time Altitude Azimuth Distance (km) Brightness Sun altitude
Exits shadow 21:51:14 54° 334° (NNW) 1,190 4.0 -34.7°
Drops below altitude 10° 21:56:55 10° 22° (NNE) 2,838 6.7 -34.6°
Sets 21:59:41 0° 26° (NNE) 3,837 7.5 -34.6°
